Theta_e
314 314 313 314 313 313 315 317 316 314 315 317 319 322 322 322 325 327 327 327 328 330 330 329 329 328 329 329 324 316 315 319 320 318 318 319 319 319 320 320 319 318 319 320 321 322 322 322 322 322 323 322 324 326 321 318 320 321 323 323 320 323 322 320 320 318 318 319 317 317 317 321 322 320 319 320 320 322 323 324 328 328 326 329 327 332 338 337
314 314 315 315 313 312 314 316 317 316 315 317 319 321 322 322 324 327 328 327 328 329 329 329 329 328 329 328 322 315 317 322 322 320 318 318 320 321 321 320 319 319 320 322 323 322 322 323 322 322 323 324 325 326 322 319 319 322 323 323 322 322 319 317 317 316 317 317 316 317 315 317 320 320 320 321 321 322 323 323 327 327 326 329 327 332 338 337
313 313 315 315 314 313 313 316 316 317 316 317 320 320 321 322 324 326 328 328 327 328 329 329 329 328 328 327 320 315 319 322 322 321 318 318 320 321 320 319 319 320 321 322 323 323 322 322 322 323 323 324 325 326 325 320 318 320 322 324 323 320 317 315 316 314 315 315 316 317 315 315 317 319 320 320 321 321 322 322 325 326 326 328 327 333 338 337
311 313 314 315 315 313 313 315 316 317 318 318 319 319 319 321 324 326 327 328 328 328 328 328 328 328 328 325 318 318 320 321 322 321 319 319 320 320 320 319 319 319 320 322 323 323 324 323 322 322 324 325 326 326 324 319 317 319 321 323 320 318 318 315 315 314 313 314 314 316 316 316 316 316 318 319 320 320 321 320 323 324 325 329 328 332 337 336
311 313 314 315 315 314 313 315 315 316 318 319 319 318 318 319 321 325 327 327 328 328 328 328 328 328 328 323 319 321 321 323 322 319 319 318 318 319 319 319 319 319 320 323 324 323 324 323 322 322 322 325 327 326 323 318 318 318 318 319 317 317 317 315 315 314 313 314 314 316 316 316 315 315 316 318 319 320 319 319 320 320 323 330 329 332 336 336
310 312 313 314 315 315 314 314 315 316 317 319 319 318 320 320 319 323 326 327 327 328 328 328 328 328 326 321 321 322 322 326 324 319 319 317 317 318 318 320 319 319 321 323 323 324 324 323 323 324 322 324 325 324 324 320 318 319 317 315 316 317 317 316 316 314 313 315 315 315 314 314 315 316 316 317 318 319 319 317 319 320 324 331 331 332 335 334
309 311 313 314 315 315 315 314 314 315 316 318 320 319 321 320 319 323 326 326 327 328 328 328 328 327 324 321 322 323 322 325 324 321 320 317 318 317 318 320 319 320 322 322 323 323 323 323 323 324 324 325 324 324 325 322 320 321 317 315 315 316 317 317 317 316 315 318 317 315 314 314 315 317 316 316 317 317 319 317 318 322 328 332 331 332 334 335
309 310 312 313 315 316 316 315 314 314 315 318 319 320 321 320 320 323 325 326 326 327 328 327 327 325 322 321 322 321 323 324 324 323 320 319 318 317 319 321 321 323 323 322 323 323 323 324 324 324 326 326 325 324 323 324 324 323 319 316 316 317 319 318 318 319 318 318 317 316 317 317 316 315 314 315 316 316 319 318 318 324 330 330 330 331 333 335
310 311 311 312 314 315 316 315 314 314 315 317 319 320 321 320 320 322 324 325 325 326 326 326 326 324 321 322 322 321 324 323 322 323 321 320 318 318 321 323 323 323 323 322 323 324 324 324 324 324 326 326 327 325 322 324 325 324 321 318 318 319 319 319 319 320 320 319 318 319 321 319 314 313 314 315 316 317 319 319 318 323 328 329 328 330 332 334
310 311 310 310 312 314 315 315 313 314 315 316 318 320 320 319 318 319 321 323 324 325 325 325 325 323 320 321 322 323 324 323 322 322 321 320 317 319 322 324 324 323 323 323 323 325 324 325 326 326 326 326 326 325 322 323 323 321 320 320 320 321 321 321 320 321 321 320 320 320 321 320 314 313 316 317 317 318 319 319 319 322 325 327 328 330 332 334
311 311 309 309 312 313 315 315 313 314 315 316 318 319 319 319 317 317 319 321 323 324 325 325 324 321 321 321 321 322 322 323 323 323 322 320 319 321 323 324 324 323 323 324 324 325 325 326 328 327 327 326 325 325 323 321 320 319 321 323 322 323 324 322 322 323 322 321 319 318 320 321 317 312 315 317 317 317 317 319 321 322 323 326 328 330 332 333
311 310 308 309 311 313 315 315 313 314 315 316 317 318 319 318 317 317 317 318 320 324 325 324 324 321 320 321 322 320 321 323 324 325 324 321 321 323 323 324 324 323 323 324 325 325 326 326 326 326 326 325 326 326 324 320 319 321 322 325 325 325 326 324 325 323 321 322 318 318 321 323 320 315 315 318 317 318 318 320 322 321 321 325 328 330 331 333
311 310 308 309 310 312 314 314 313 315 315 316 317 318 318 317 317 316 316 316 317 321 325 325 324 321 321 322 322 320 321 323 324 326 326 323 323 323 324 324 323 323 324 324 326 326 327 327 326 325 324 325 325 323 322 320 320 322 322 324 326 327 326 326 325 320 319 320 316 319 323 324 322 319 317 318 318 319 318 320 322 322 322 325 328 330 330 332
310 308 309 311 310 311 314 314 314 315 315 315 316 317 318 317 316 315 316 316 316 319 323 325 324 321 321 322 321 320 320 323 326 326 325 323 323 325 325 325 323 323 324 324 327 326 327 326 325 326 325 324 323 321 322 322 323 323 323 324 326 328 328 324 320 318 319 317 312 319 323 323 324 320 317 317 319 318 318 319 321 322 323 325 329 330 330 332
309 308 310 312 312 312 313 314 314 315 315 316 316 317 318 318 317 315 315 316 318 321 323 324 323 321 322 322 320 320 320 324 327 325 324 324 324 325 325 326 325 324 325 326 326 324 324 325 326 327 325 322 321 323 325 325 324 325 326 328 327 328 328 324 319 318 320 315 310 317 321 322 323 319 314 315 318 318 317 318 319 322 324 325 328 329 329 330
310 310 311 313 313 314 314 315 314 315 316 316 316 316 317 319 321 318 316 319 321 323 324 324 321 320 322 323 320 320 322 324 325 324 325 324 325 325 325 326 326 325 326 325 325 324 325 325 325 325 323 322 324 326 327 328 327 326 328 330 330 328 328 327 320 316 317 316 313 315 318 320 319 316 312 311 315 318 318 318 318 322 323 324 327 327 328 329
311 311 311 312 313 314 315 315 315 315 316 316 316 316 317 320 323 321 319 320 321 321 323 324 320 320 323 322 320 322 323 323 323 324 324 324 324 324 324 325 325 325 326 325 326 325 325 325 323 324 324 324 326 327 330 332 331 329 328 329 330 329 328 327 320 313 313 315 316 316 316 317 317 316 314 312 314 317 317 317 317 320 323 324 326 327 328 329
311 311 312 313 314 315 315 315 315 315 315 315 316 316 317 321 322 322 320 318 318 318 319 320 319 322 324 321 320 323 323 322 324 324 323 324 324 324 324 324 325 325 325 326 325 326 326 324 323 326 327 326 327 330 333 333 332 330 329 329 329 327 325 325 322 315 313 315 317 317 316 317 316 315 316 315 315 316 316 316 316 317 321 323 325 325 327 329
312 312 312 312 312 314 314 314 316 315 315 316 316 316 318 320 320 320 319 318 318 317 318 320 321 323 324 321 320 322 323 323 324 323 323 323 324 324 324 324 324 324 325 326 326 326 326 325 327 329 329 328 329 330 331 330 329 329 329 328 328 328 325 324 323 317 314 317 318 318 318 318 317 316 316 317 316 316 315 315 316 316 318 321 323 323 325 327
312 311 310 309 310 312 313 314 315 315 316 317 317 317 318 318 318 318 318 318 318 318 319 320 320 320 319 320 322 322 323 324 323 322 323 323 323 324 324 324 324 325 325 326 328 326 324 327 330 330 329 328 327 327 327 328 328 329 329 328 327 328 326 324 323 317 315 320 322 322 321 320 319 316 315 317 317 315 315 315 315 317 318 319 321 323 323 325
312 311 310 310 310 311 312 313 314 315 316 316 315 317 318 317 318 318 318 317 317 317 318 317 317 316 315 317 322 323 323 323 323 323 323 323 323 324 324 323 325 327 326 326 327 325 326 330 330 328 327 327 326 326 326 327 328 329 328 328 328 327 327 325 322 317 314 319 324 323 323 322 320 317 315 315 316 316 315 315 315 315 317 318 320 322 323 324
312 312 311 310 309 311 313 313 313 313 314 315 315 316 317 316 315 315 316 317 317 316 316 316 315 315 313 314 320 323 323 323 323 323 323 323 323 324 324 323 325 327 326 327 328 328 329 330 328 326 326 326 326 326 326 328 328 329 329 329 329 328 327 325 321 317 314 318 322 322 322 322 320 319 318 316 315 316 315 315 315 315 315 317 318 320 322 324
312 312 311 309 309 310 312 314 315 313 314 315 315 315 315 316 313 311 314 317 316 315 315 315 315 315 313 313 318 323 323 324 324 324 323 323 323 323 323 324 325 326 327 328 329 331 331 329 326 325 325 326 327 326 327 329 329 329 328 329 329 328 327 326 322 316 314 317 320 320 319 320 320 319 319 319 318 317 317 315 315 316 315 316 317 319 320 322
311 311 310 309 308 309 310 313 315 315 315 315 315 314 314 315 312 311 314 317 316 313 313 314 314 314 313 312 318 324 324 323 323 323 323 322 322 322 323 323 324 326 328 327 327 329 330 327 325 326 326 326 328 328 327 328 329 328 328 328 328 327 326 326 321 316 315 316 316 316 318 319 320 321 320 321 321 320 319 318 316 316 316 316 317 319 319 321
311 311 310 308 308 308 309 311 312 314 315 315 314 314 313 313 311 311 315 316 316 313 312 313 314 314 313 312 316 322 323 322 322 322 322 321 321 323 323 322 323 326 327 326 327 329 328 325 325 326 327 327 328 328 327 328 328 328 327 327 327 327 326 325 322 319 322 323 317 315 321 324 322 322 322 322 324 323 322 320 317 316 316 316 317 317 319 320
310 310 309 307 307 307 308 309 310 312 314 314 314 314 313 312 311 311 315 315 314 313 312 313 313 314 313 314 318 321 324 324 322 321 322 322 321 322 324 323 323 325 326 325 327 329 327 325 326 327 328 329 329 328 327 327 328 329 327 325 326 327 326 325 323 323 327 328 319 314 321 324 322 322 323 323 324 325 325 322 317 317 316 316 316 317 318 318
309 308 307 307 306 306 308 309 309 311 312 312 313 313 313 313 312 311 314 315 315 314 313 313 313 314 315 317 320 322 326 326 323 322 322 322 322 322 326 325 324 325 324 326 329 329 327 326 328 328 328 330 329 329 328 326 328 330 326 324 325 325 326 326 324 324 325 324 320 315 318 321 321 321 321 321 322 323 325 324 319 317 317 316 316 316 317 317
307 306 305 305 305 306 308 309 309 309 311 312 313 313 312 312 311 311 314 316 316 314 314 314 314 315 317 320 322 323 324 324 325 324 321 322 324 324 327 325 323 325 324 326 330 328 326 327 328 327 329 331 329 329 327 326 328 328 324 323 324 324 326 326 326 325 321 321 325 323 319 320 322 321 320 320 320 321 323 323 321 319 317 317 316 316 317 317
306 305 304 305 306 308 308 308 308 309 311 312 312 313 312 310 311 313 314 316 316 314 314 315 315 316 318 321 323 322 322 323 325 324 321 322 321 321 326 325 322 325 325 325 327 326 325 326 327 327 329 330 327 327 326 325 326 324 323 324 324 324 325 323 325 323 319 321 326 327 322 322 324 321 320 320 319 319 321 321 321 320 318 318 316 316 316 316
305 304 305 305 307 309 309 308 309 310 311 311 311 312 311 310 312 315 315 317 317 314 315 316 316 319 320 322 324 323 322 323 324 322 322 323 320 319 323 323 323 326 325 324 324 323 322 323 325 326 327 327 325 325 325 325 323 321 323 324 323 323 321 321 322 319 321 326 325 324 323 322 324 323 321 322 321 319 320 320 322 322 320 319 316 317 317 315
305 304 305 306 307 309 309 309 309 310 311 311 310 310 311 310 312 316 316 316 317 315 316 318 318 320 321 322 325 324 323 323 323 322 322 323 321 322 325 327 328 328 326 325 323 321 322 325 326 323 321 324 326 324 321 320 320 321 322 323 322 321 319 320 320 318 325 329 321 320 323 322 323 324 321 323 322 320 319 320 321 321 321 320 318 317 317 316
304 304 305 306 307 307 307 308 309 312 312 311 310 309 311 312 313 316 316 315 317 316 316 318 319 321 321 322 324 324 323 323 323 323 323 323 324 325 327 329 329 327 327 326 325 324 325 325 323 319 319 323 326 323 318 316 318 320 321 322 324 323 322 324 322 320 326 326 315 314 319 320 322 322 320 322 321 320 319 318 319 320 320 320 319 318 319 320
303 304 305 306 306 307 308 309 309 312 312 311 311 309 310 311 313 315 315 314 316 316 315 317 319 321 321 322 323 324 323 323 323 323 323 324 325 326 327 327 327 328 329 327 326 326 326 323 321 320 321 321 324 324 320 317 317 319 320 323 326 325 326 329 326 323 326 322 314 313 317 320 321 319 319 320 319 319 318 317 318 319 319 319 319 319 321 321
303 304 305 306 306 307 308 308 308 310 310 311 311 310 310 312 314 315 315 313 313 315 315 317 319 321 321 322 322 323 324 324 323 324 324 325 326 327 328 327 326 327 328 327 326 326 328 326 322 322 322 322 323 324 322 318 316 317 319 323 326 324 326 331 327 326 328 322 315 316 320 323 321 317 316 315 315 314 314 315 316 316 317 318 317 317 317 316
305 305 306 305 306 307 307 307 307 308 310 311 309 309 310 312 313 314 314 312 312 314 316 317 319 321 321 321 320 321 323 323 323 324 325 326 327 328 328 327 326 325 326 327 326 325 327 326 321 320 319 321 324 322 317 316 316 317 318 322 326 324 324 326 322 321 324 321 317 317 319 321 319 318 316 315 315 313 312 313 313 314 314 316 316 315 315 314
304 305 305 305 306 307 307 307 307 307 310 311 308 308 310 311 312 314 314 313 313 314 316 317 319 320 321 320 319 320 321 321 323 325 325 326 327 327 326 325 324 323 324 326 325 325 326 324 319 318 319 320 323 319 314 318 320 317 318 321 322 321 321 323 320 316 319 324 323 318 318 319 318 320 319 318 319 316 313 312 312 313 314 315 316 316 317 318
303 303 304 305 305 306 307 307 308 307 308 310 309 309 310 310 311 313 314 314 313 314 316 318 318 318 320 320 318 319 320 321 323 324 325 326 328 327 324 323 323 322 322 323 324 324 325 322 316 317 321 320 318 317 315 319 320 317 318 320 318 319 320 322 323 321 321 326 326 321 320 320 319 320 319 319 320 319 316 313 312 313 314 314 316 317 318 321
302 302 303 304 305 306 306 307 308 307 307 308 309 310 309 308 309 311 312 314 315 315 317 318 317 316 319 320 318 318 319 322 324 323 323 325 327 326 323 323 323 322 321 322 323 322 322 321 316 315 318 318 315 318 319 319 316 316 318 319 319 323 324 322 325 326 325 326 326 322 321 320 319 318 318 318 319 318 318 316 314 313 313 314 315 316 316 319
302 302 302 303 304 305 306 307 307 306 305 306 307 308 308 307 309 310 311 313 315 316 317 318 316 315 317 318 318 317 317 321 323 322 323 324 326 325 323 323 323 322 321 321 322 321 320 322 320 315 314 317 317 320 322 320 316 314 317 318 319 323 323 323 324 324 325 325 326 324 322 320 319 319 318 319 319 317 318 317 316 315 315 315 314 314 315 316
302 303 303 303 304 305 306 307 306 306 305 305 305 307 308 308 309 309 309 311 313 315 317 317 316 316 316 316 317 316 316 319 321 322 323 324 326 326 323 322 323 321 322 320 321 321 319 321 321 315 313 318 321 321 321 320 317 315 317 319 320 319 319 321 322 322 323 324 325 327 325 321 318 319 319 319 319 319 319 318 317 317 315 314 313 314 315 315
302 303 303 303 304 306 307 306 306 306 305 305 304 306 308 308 309 309 309 310 312 313 314 315 316 317 316 316 316 316 316 318 320 321 323 324 325 326 324 322 322 321 321 321 320 321 320 319 319 316 316 320 320 316 316 317 317 317 317 318 320 319 319 322 324 322 321 324 325 325 325 321 317 317 318 318 318 318 318 318 318 317 314 312 314 315 314 314
302 303 304 304 304 306 306 305 305 305 305 305 305 306 308 309 310 309 308 309 311 312 311 312 315 316 315 317 317 315 316 318 319 321 323 324 324 325 323 321 321 320 319 320 319 318 317 317 317 317 317 318 314 311 311 314 315 317 317 318 320 319 320 324 326 324 321 322 322 320 322 322 315 314 316 316 317 315 315 316 315 315 313 312 314 314 313 313
303 303 303 304 305 306 305 305 305 305 305 306 306 307 308 309 310 309 308 309 310 311 310 311 313 315 315 316 317 315 316 317 319 321 324 325 322 321 321 321 320 319 319 318 317 316 317 317 318 317 315 314 312 311 311 312 315 318 318 318 319 320 321 322 321 320 320 322 321 321 324 324 315 314 316 315 315 314 312 312 312 312 312 312 313 312 312 312
302 302 303 304 305 305 305 304 305 304 305 305 306 306 308 309 309 309 309 309 309 310 310 310 312 314 315 316 316 316 317 318 320 320 323 325 321 317 319 321 320 319 319 318 317 318 319 318 318 318 318 317 316 316 315 314 315 318 319 318 319 320 322 320 316 315 318 321 321 322 325 324 316 316 316 313 312 312 311 311 311 311 313 313 312 312 311 311
301 301 302 304 304 305 305 304 305 305 305 305 306 306 307 308 308 309 309 309 309 310 310 310 311 314 315 316 317 316 317 319 320 319 320 321 319 317 319 321 320 318 319 320 318 318 319 318 318 319 320 321 321 320 320 317 316 317 319 319 319 320 321 319 317 318 319 320 320 321 323 322 316 314 313 311 311 312 311 311 310 310 311 312 312 313 313 313
301 301 302 303 304 304 305 305 304 305 305 305 306 306 306 307 308 309 309 309 309 310 310 311 312 313 313 315 317 317 316 316 316 316 318 318 317 316 319 319 318 319 324 325 320 317 318 318 318 319 319 320 320 320 319 318 317 317 319 320 320 320 321 320 320 321 320 320 321 320 320 321 318 314 313 312 313 313 313 312 311 310 311 311 312 314 313 313
301 301 302 303 303 304 304 304 304 304 305 305 306 306 306 306 308 309 309 309 310 310 311 312 312 312 313 314 316 317 316 315 313 314 316 317 315 315 318 319 319 322 325 324 319 317 318 318 318 319 319 318 318 318 317 317 318 318 318 319 319 318 320 321 321 321 321 322 323 322 321 322 321 317 316 315 314 314 314 312 310 311 311 312 313 313 312 313
300 301 301 303 304 304 304 304 304 304 305 305 305 306 306 306 307 308 308 308 310 311 311 312 312 311 312 314 315 317 316 315 314 314 315 315 315 316 319 320 319 320 322 321 319 320 320 319 319 320 320 318 317 316 317 317 317 317 317 318 317 317 319 320 320 320 321 323 324 322 322 323 321 319 318 316 315 315 314 312 311 310 311 312 312 312 313 314
300 301 301 302 304 304 304 304 304 305 305 305 305 306 306 306 306 308 308 309 311 311 310 311 312 311 311 313 314 316 316 316 316 315 313 314 317 318 320 321 319 318 320 318 317 320 320 319 320 321 320 319 318 317 317 318 318 318 317 317 316 317 317 318 319 319 320 321 321 321 322 322 320 320 319 318 317 315 312 310 310 311 312 312 313 313 313 313
300 300 301 302 303 303 304 304 305 305 305 305 305 305 305 306 306 307 308 309 310 311 310 309 310 312 312 312 313 314 315 316 317 316 313 314 317 318 319 320 319 319 319 318 316 318 319 320 320 320 318 317 318 318 318 318 319 319 318 317 316 316 317 317 318 319 319 320 320 320 322 321 320 319 319 318 318 316 313 311 310 310 311 312 312 313 313 313
300 300 300 301 302 302 303 304 304 305 305 304 305 305 305 306 305 306 308 309 309 310 310 309 309 311 312 312 313 313 313 315 317 315 313 314 317 318 319 318 318 319 319 319 318 318 318 320 320 318 317 316 316 318 319 318 319 319 319 318 317 317 317 317 318 318 319 319 320 321 321 320 319 318 318 318 317 316 315 314 313 314 313 313 313 313 313 314
299 299 299 300 300 301 301 302 303 304 305 305 304 305 305 306 306 305 307 309 309 309 310 309 309 311 313 313 313 313 313 314 316 315 314 314 316 319 319 317 316 318 319 319 319 317 317 319 318 318 319 317 317 318 318 318 319 319 319 318 318 317 317 317 317 317 317 318 319 320 320 319 318 317 317 317 316 316 315 315 315 316 315 315 315 315 315 315
Wind_Speed
31 31 33 33 32 32 31 31 31 32 32 31 30 30 29 30 30 31 31 33 35 32 31 32 28 27 27 24 22 22 20 16 15 19 18 18 21 18 19 19 19 23 23 20 16 15 15 11 12 13 9 5 1 1 3 4 1 3 5 6 6 7 3 3 4 4 3 4 7 5 2 5 2 3 3 1 6 5 4 7 3 3 3 3 5 6 15 19
32 32 32 34 34 33 32 32 31 32 33 31 31 30 29 30 30 31 32 32 35 33 31 31 29 28 28 25 24 24 21 16 15 19 22 22 21 18 17 20 23 25 22 18 18 18 16 13 12 12 7 3 0 2 1 3 2 4 5 7 6 1 3 5 6 6 5 5 5 4 4 3 3 2 2 3 7 7 6 7 7 7 8 6 5 9 16 18
34 34 34 34 35 34 34 34 33 32 33 32 30 31 29 29 30 32 33 32 33 34 33 32 30 28 29 26 25 24 20 15 15 18 25 26 22 19 17 21 26 25 22 17 15 16 15 13 12 10 6 4 3 2 0 2 2 2 3 7 4 5 6 6 6 7 6 5 6 4 4 2 2 2 2 4 7 7 9 8 9 10 10 10 8 13 17 17
36 36 36 36 36 36 35 35 35 33 33 33 31 31 31 29 29 32 33 32 33 34 33 33 31 29 30 28 25 23 17 11 14 19 25 29 25 20 20 24 27 25 20 15 13 13 13 15 14 11 6 4 3 1 2 1 2 2 3 4 4 6 5 5 5 6 5 4 5 5 3 3 1 2 4 5 8 7 8 7 7 9 11 12 11 15 17 17
38 37 37 37 36 37 36 36 37 34 32 33 32 32 33 32 30 31 33 33 34 35 34 34 32 31 32 29 25 24 17 7 10 22 27 31 29 23 23 25 26 27 21 14 13 12 13 14 12 10 7 5 4 1 3 0 2 2 2 2 6 3 4 5 4 5 4 3 4 5 4 4 3 4 7 7 9 4 1 3 2 4 7 14 14 16 17 17
40 38 37 38 37 37 38 38 37 36 33 32 33 33 32 33 31 31 34 34 33 35 35 36 34 34 34 31 28 25 18 5 6 24 33 32 32 27 26 25 25 26 21 16 15 14 13 12 9 9 8 7 8 6 2 2 2 2 2 4 4 2 4 5 3 3 2 4 4 6 5 6 7 6 6 9 11 5 3 5 4 6 3 15 16 16 17 16
41 40 39 39 38 38 39 39 38 38 36 34 34 33 32 32 32 31 34 36 34 36 38 38 36 35 34 32 28 22 19 8 5 18 34 34 33 31 27 25 26 24 20 21 19 15 13 14 12 9 9 9 12 11 3 3 2 4 4 5 4 2 2 2 2 1 2 5 5 5 5 7 9 7 4 6 11 9 1 5 3 2 4 14 15 15 17 17
42 42 41 40 39 38 40 41 40 39 37 35 34 34 34 32 32 29 33 36 34 37 40 40 38 35 35 30 22 16 17 13 6 16 33 35 32 30 28 25 26 23 21 23 20 17 14 15 15 9 9 8 10 12 6 4 3 7 5 6 4 1 1 1 2 3 4 4 3 5 8 9 8 5 6 10 13 11 5 5 4 3 7 11 13 15 15 16
43 44 44 42 41 40 41 42 41 40 38 37 35 34 34 33 32 27 28 33 34 37 38 41 40 36 36 25 16 14 19 15 8 17 31 34 32 30 29 26 25 23 22 23 21 20 14 13 15 11 10 7 7 10 8 5 4 5 4 4 4 2 2 3 5 6 5 4 4 7 11 9 2 3 8 12 10 6 4 5 5 6 8 10 11 13 14 14
43 44 45 45 43 41 42 43 43 41 39 38 36 35 35 34 32 27 24 26 31 36 37 40 40 38 35 21 14 14 17 17 10 20 32 34 34 32 29 25 25 25 22 22 21 20 14 12 10 5 7 7 7 7 7 8 3 2 2 1 3 4 5 5 6 8 7 6 6 8 11 9 0 1 7 3 2 3 5 6 7 8 9 10 10 11 13 14
43 44 46 45 43 42 42 43 44 43 41 39 37 37 37 35 32 29 25 20 26 37 38 39 42 41 33 18 14 11 14 19 15 23 32 35 37 34 31 26 26 27 23 22 21 21 17 11 9 2 2 5 8 7 6 5 2 4 2 2 5 7 8 8 9 10 7 4 3 5 12 13 4 5 10 4 4 4 6 8 9 9 9 9 10 10 11 13
42 43 46 46 44 42 41 43 45 43 42 40 37 38 38 36 33 31 28 22 22 32 37 39 42 42 30 13 13 10 13 18 17 24 30 33 35 32 29 26 27 28 24 21 20 20 16 10 13 7 2 4 6 6 5 4 3 3 1 4 7 8 10 12 11 6 3 3 1 3 11 14 10 11 13 7 6 6 6 8 8 9 9 8 10 9 9 11
42 42 46 47 45 42 41 42 44 43 42 40 36 37 38 37 36 33 33 30 24 28 34 39 44 41 25 10 14 14 12 16 20 25 27 28 29 26 24 24 25 25 23 21 18 15 12 11 13 9 4 4 4 4 5 5 4 3 1 4 6 7 11 12 9 3 2 4 3 2 8 10 10 13 12 7 7 7 6 8 8 8 8 8 9 8 9 11
42 44 45 45 45 44 42 43 44 43 42 40 36 36 36 36 37 35 35 35 28 25 29 40 48 39 19 6 11 20 15 15 21 25 27 29 27 23 21 22 24 24 22 19 15 13 11 12 11 4 2 2 3 6 5 5 4 5 2 2 5 7 8 5 3 2 3 2 4 6 8 8 10 6 7 6 6 8 7 8 8 8 8 8 8 9 9 11
43 45 43 41 42 43 43 43 43 42 41 40 37 35 35 34 35 36 35 33 27 23 25 37 43 28 11 3 8 23 22 17 23 26 29 31 28 23 21 22 19 19 17 13 15 15 14 14 9 4 2 2 5 6 4 4 4 6 4 4 6 7 6 5 4 3 4 2 5 8 7 7 10 3 6 3 4 6 7 8 8 9 9 9 8 9 9 9
43 43 41 39 39 41 42 42 41 41 39 38 37 35 36 34 34 36 34 29 22 22 26 29 33 20 6 4 11 22 21 18 26 27 28 31 29 26 25 22 16 14 12 11 15 15 14 12 4 3 2 2 6 6 4 5 6 7 7 7 7 8 7 4 3 3 4 3 7 11 7 5 6 2 5 4 3 5 7 8 8 9 9 9 8 8 8 8
43 41 40 39 39 40 41 41 39 39 38 37 36 35 35 32 33 34 32 31 22 20 22 21 29 22 5 8 16 18 17 20 27 27 27 30 28 29 28 20 15 16 15 13 15 14 12 8 3 3 2 3 6 6 6 8 8 8 8 7 8 10 8 5 3 2 2 5 8 11 10 9 8 7 4 3 4 5 7 8 8 7 7 8 7 7 8 9
41 39 39 37 37 37 37 38 37 37 37 37 37 36 33 28 28 29 25 27 19 11 13 12 20 17 4 12 18 17 23 26 28 28 29 29 28 29 27 19 16 18 15 11 12 11 8 5 4 5 5 5 7 7 7 8 9 9 9 8 8 9 8 6 4 3 3 5 8 10 12 12 12 12 13 9 7 7 8 8 8 8 8 8 8 8 9 10
39 37 37 34 33 33 34 36 35 35 36 36 35 33 28 21 20 19 18 20 14 7 5 5 11 7 1 11 18 20 27 28 26 28 29 29 29 27 24 20 18 18 15 9 10 9 7 5 6 9 9 10 11 11 12 10 10 12 11 10 9 9 7 7 5 3 2 5 8 11 13 13 12 12 14 13 9 9 10 9 9 9 8 8 8 9 9 11
37 35 35 33 31 32 33 35 34 34 36 35 33 25 16 12 9 8 10 11 11 9 2 2 3 1 7 3 16 22 24 25 23 25 31 31 31 27 18 15 14 13 14 13 13 9 8 10 10 12 13 14 15 16 17 13 10 12 12 12 11 10 7 7 6 5 3 4 9 12 14 15 14 13 13 13 10 9 10 11 11 10 9 9 9 10 11 11
37 34 34 32 32 32 31 34 34 33 34 33 30 16 8 12 7 5 8 5 10 12 7 4 4 5 5 5 13 26 20 16 13 19 33 34 30 24 13 14 14 10 13 16 14 8 8 12 14 16 17 17 18 17 17 15 12 12 13 11 11 11 9 5 4 6 6 4 8 11 15 16 14 14 13 12 12 11 11 12 12 13 12 10 11 12 11 9
34 32 30 30 32 31 30 32 34 34 31 28 23 9 5 13 8 7 13 5 8 12 9 6 8 9 9 18 14 26 17 12 12 13 28 31 24 19 14 16 16 13 14 13 10 8 9 12 16 19 18 18 18 18 18 16 13 12 10 9 8 9 8 5 5 8 6 4 6 9 12 14 15 16 15 14 14 12 12 13 12 13 12 11 11 11 10 9
31 30 29 29 31 31 29 30 32 34 28 24 21 8 4 11 9 11 13 3 3 7 6 8 9 8 10 20 14 22 16 16 20 15 22 25 18 18 19 19 19 16 15 13 11 11 9 11 16 17 17 18 18 18 18 13 11 11 9 8 8 8 7 6 5 8 7 6 6 9 10 12 14 15 16 16 16 15 13 14 13 12 12 12 12 10 10 11
31 30 28 29 30 30 29 29 30 29 24 23 23 12 10 12 15 17 11 2 1 3 2 7 6 7 13 18 14 18 15 13 18 19 22 23 18 18 19 21 22 17 14 17 17 13 7 6 14 17 16 18 17 16 17 12 10 10 10 10 9 9 9 6 2 5 6 8 8 9 9 10 12 15 16 15 16 18 17 16 15 13 13 12 11 10 10 12
30 29 27 29 28 28 31 26 22 22 20 20 19 15 18 19 22 21 10 3 2 2 1 4 3 9 20 21 18 14 13 9 13 18 21 25 24 19 16 16 16 16 19 22 19 12 7 10 17 18 14 15 16 16 17 14 10 9 10 11 10 10 9 7 3 2 4 6 6 7 7 6 6 12 13 11 14 18 18 17 18 15 13 12 11 11 11 11
28 27 27 28 28 29 27 16 14 20 18 13 13 18 23 23 24 22 9 1 4 3 6 8 5 9 15 13 11 12 14 9 11 18 20 25 23 15 14 14 9 15 22 19 12 6 7 14 18 17 15 16 16 15 17 15 10 9 7 10 13 11 8 7 5 3 4 5 2 5 7 6 5 8 10 8 11 17 18 18 17 14 13 12 11 11 11 11
26 27 27 27 30 28 16 9 15 18 12 11 15 21 24 22 23 19 6 3 5 4 8 9 5 8 10 8 12 13 10 9 11 15 20 22 18 10 12 14 11 14 14 10 8 5 9 16 17 18 17 14 14 13 15 15 11 7 6 8 12 11 9 7 5 5 5 6 3 6 8 7 9 8 7 9 10 13 16 17 15 14 14 13 12 12 12 12
24 26 25 24 26 18 8 13 19 13 10 16 19 21 23 18 15 14 5 4 4 4 7 8 5 7 6 8 15 8 6 17 15 13 21 20 12 9 12 15 16 18 16 11 7 6 13 17 17 19 16 11 13 13 12 14 11 4 6 6 9 9 8 6 7 7 3 4 7 8 6 6 8 5 4 9 12 12 14 15 14 14 15 15 14 13 13 13
23 24 24 22 19 11 10 16 16 9 13 21 21 22 24 14 6 6 4 4 2 3 5 7 6 7 5 7 14 8 4 13 10 12 21 16 6 3 7 13 16 17 18 14 8 5 9 14 17 17 13 11 13 12 12 15 11 4 6 5 4 6 5 4 6 4 1 4 8 7 6 6 8 6 6 8 9 11 11 12 13 13 14 14 14 13 12 11
23 22 23 21 15 12 13 13 12 14 20 23 24 25 22 11 3 5 6 4 3 3 5 8 7 10 11 10 12 11 8 5 6 12 14 9 3 0 3 10 13 12 11 8 6 5 4 7 12 11 9 11 13 12 12 14 11 10 8 7 5 3 2 1 3 1 2 7 6 8 11 8 7 5 6 7 7 8 9 9 11 13 14 14 13 12 11 10
23 23 23 18 13 13 12 10 13 18 21 26 29 25 16 6 3 5 6 1 3 5 6 8 10 13 17 16 9 11 10 4 11 16 9 6 5 2 6 10 8 7 8 5 5 6 7 7 8 5 5 11 12 8 5 6 11 11 7 8 7 2 2 1 3 3 6 6 1 4 9 9 9 4 2 5 5 6 8 9 10 12 13 12 11 11 11 10
23 23 20 14 13 12 9 12 16 19 25 30 27 17 8 4 5 4 2 3 2 6 6 8 11 13 17 18 10 13 12 4 12 18 12 11 10 8 12 12 8 7 7 8 6 6 7 7 7 5 4 11 14 8 4 5 9 8 7 9 7 4 4 4 4 4 7 5 2 1 4 8 11 8 8 11 10 8 9 9 10 11 13 12 9 10 10 8
21 21 16 13 15 10 10 18 20 24 31 27 16 9 6 6 5 3 2 1 2 3 5 8 12 13 17 16 10 13 13 7 13 18 15 15 13 13 16 14 16 12 8 13 11 7 6 3 6 8 5 12 16 11 6 6 8 9 10 10 8 6 5 7 6 4 6 4 5 5 3 7 9 6 10 13 11 10 10 11 12 11 11 9 5 4 4 2
19 18 14 13 13 10 14 19 17 25 28 14 6 8 8 7 3 4 4 1 1 2 4 9 14 15 15 14 10 11 10 8 15 18 16 16 13 13 14 13 17 11 8 12 7 6 8 2 8 12 6 13 18 13 10 9 8 9 8 7 8 6 5 6 5 6 6 2 6 8 4 5 4 2 1 4 3 5 7 9 10 8 7 6 4 3 3 3
17 15 14 13 11 10 15 16 16 23 21 7 4 7 8 7 2 2 4 3 1 3 5 7 12 13 11 10 10 12 7 4 13 15 14 16 14 13 14 13 16 11 10 11 5 6 8 2 9 9 3 14 20 10 9 12 7 4 3 6 7 5 5 4 1 3 3 1 4 7 4 5 3 4 6 7 6 6 6 8 9 9 8 7 6 6 5 5
16 13 12 12 12 12 13 15 18 21 14 6 6 7 7 4 1 1 4 5 3 5 8 9 9 8 7 5 7 12 5 2 13 13 9 15 16 14 14 11 15 17 14 12 6 7 9 4 9 8 6 16 17 11 14 13 8 4 4 6 3 1 3 5 1 2 1 5 5 6 6 7 6 9 10 12 13 10 8 8 9 11 12 10 8 7 6 5
13 11 9 9 11 14 13 15 20 19 10 4 6 7 5 1 1 2 2 4 6 6 8 8 5 4 7 6 5 10 6 4 12 11 7 12 12 13 15 10 14 19 17 12 5 5 8 5 2 5 10 10 4 11 17 9 6 8 7 7 5 4 3 4 4 3 3 7 6 7 9 8 6 6 3 8 13 11 9 9 8 9 10 10 10 9 7 4
11 10 8 7 11 14 14 16 20 16 7 5 7 7 3 1 2 3 1 2 8 8 5 3 2 2 6 7 6 9 7 6 11 9 6 9 7 11 18 14 15 20 19 15 8 5 9 7 3 2 5 4 1 8 14 3 1 3 5 9 7 3 5 5 5 5 6 7 5 6 10 8 8 7 3 6 8 6 7 9 9 9 9 9 9 8 6 2
10 7 5 7 12 14 16 18 17 11 7 8 9 7 4 3 4 4 1 0 3 6 6 3 2 1 3 5 5 8 9 9 11 9 6 6 5 11 17 13 14 21 22 17 10 8 8 6 3 1 1 4 3 6 10 5 1 1 3 8 7 5 5 7 6 3 4 6 5 5 7 7 8 10 10 12 10 7 9 8 8 11 10 6 5 4 3 1
5 4 4 7 13 15 17 16 12 8 8 9 8 5 5 4 4 5 5 2 1 1 3 2 3 3 4 4 3 5 7 8 11 10 7 8 7 11 17 13 13 20 21 17 11 10 7 4 6 3 1 5 5 5 10 11 7 5 6 10 9 4 1 3 5 4 3 5 5 6 7 6 3 6 9 12 11 11 11 9 8 7 4 1 0 1 1 2
2 3 4 8 16 17 15 11 8 8 7 8 8 5 4 4 6 7 8 6 2 2 3 1 3 5 5 5 3 4 5 5 9 8 6 10 9 8 14 16 16 18 18 16 13 10 6 5 8 7 4 5 3 1 4 8 10 9 7 8 9 7 4 3 6 6 5 5 5 5 8 6 2 4 5 7 8 9 8 8 7 4 1 1 1 1 0 2
3 4 5 10 18 20 14 7 7 7 6 7 6 3 4 4 6 8 9 7 4 1 4 3 2 4 5 5 3 4 5 3 7 9 7 12 12 8 13 19 19 19 16 11 8 5 4 6 8 8 5 3 2 3 3 1 5 9 7 7 9 7 7 8 7 6 6 7 5 4 8 5 5 6 4 5 4 3 1 3 6 4 2 1 1 1 2 3
4 6 6 11 21 20 11 6 7 7 7 6 3 3 6 5 5 8 8 7 5 3 1 2 2 4 5 4 2 5 7 3 6 11 8 12 12 5 13 25 22 20 15 8 8 6 5 6 8 7 3 3 4 3 3 4 1 7 8 9 11 11 11 8 3 2 5 7 6 4 8 5 5 6 4 3 2 1 1 3 5 4 2 1 2 3 3 3
6 6 4 9 20 18 9 6 8 8 7 6 4 5 6 4 6 9 9 9 7 4 4 3 4 4 4 4 4 7 9 4 6 10 6 7 7 2 13 29 24 18 12 8 9 7 4 6 8 8 5 2 2 2 3 2 5 8 10 12 14 16 15 6 1 1 4 7 9 8 10 7 3 4 3 3 3 3 5 5 3 2 2 1 2 3 3 3
5 4 3 6 12 11 6 4 6 7 7 7 6 7 7 4 6 10 11 11 9 6 6 5 5 3 2 4 6 7 9 4 3 6 3 1 2 3 12 27 25 16 8 8 12 7 4 7 7 8 9 8 7 7 6 6 6 6 10 14 15 17 17 9 3 4 6 7 9 8 10 8 2 4 3 4 5 7 7 4 2 3 3 3 3 3 2 2
3 3 4 4 4 5 6 6 5 6 7 8 6 6 9 7 5 9 11 10 10 8 6 4 5 4 3 6 7 7 10 5 1 2 3 3 1 3 10 23 23 15 9 12 14 6 3 7 7 9 12 8 4 5 7 8 7 7 10 12 11 11 13 8 5 8 10 7 7 10 15 13 6 6 7 7 9 10 7 4 4 4 4 4 4 3 2 1
1 3 5 5 3 4 7 7 8 8 8 9 6 6 12 12 7 7 10 9 9 9 6 3 6 6 4 6 6 6 11 7 3 4 4 3 1 2 7 18 17 12 11 13 15 8 4 7 9 12 14 9 7 9 12 14 13 14 15 14 13 12 11 9 9 14 14 8 10 16 19 20 17 10 8 8 10 9 6 5 5 4 4 3 3 3 2 2
1 1 4 6 5 5 8 9 10 12 11 11 8 7 12 14 10 9 9 9 9 10 6 4 8 10 8 7 5 6 9 7 4 5 2 2 3 3 7 13 11 10 11 7 8 7 5 8 12 12 10 8 11 13 15 16 14 16 18 19 18 19 19 17 17 20 18 12 14 17 16 19 21 13 10 10 9 8 7 5 3 2 2 1 2 3 4 3
1 1 2 5 4 6 10 12 11 13 14 12 9 8 11 14 14 11 8 8 9 11 10 8 11 14 12 10 7 6 8 8 7 8 6 6 8 7 9 9 5 5 10 6 4 5 5 6 10 11 7 6 10 14 16 16 14 14 18 20 19 20 22 21 21 24 21 16 20 19 14 18 18 9 8 10 9 7 4 4 2 1 2 3 4 5 5 5
2 1 2 4 6 6 8 10 10 11 12 11 10 11 11 13 16 13 9 10 10 10 13 15 14 16 16 14 12 12 13 12 9 10 13 13 11 11 11 9 7 8 11 10 7 7 6 7 10 11 6 3 5 10 15 15 14 15 17 19 20 20 21 23 23 21 17 18 25 21 14 17 13 5 7 9 8 7 3 3 4 5 5 7 7 8 9 7
2 1 2 1 5 6 6 7 8 9 9 10 11 11 11 14 18 15 10 13 14 12 16 21 19 15 14 15 18 19 17 13 10 8 15 14 11 11 9 8 12 14 12 11 9 7 7 7 10 10 7 4 5 10 14 12 10 10 13 17 22 22 21 22 21 17 15 19 22 16 13 15 8 3 7 9 8 10 8 7 9 8 8 9 10 10 10 9
4 2 2 1 3 4 5 6 7 8 7 9 12 13 13 15 18 16 10 10 14 15 16 20 19 12 11 16 21 19 16 13 10 7 9 6 2 2 1 5 18 19 14 13 10 8 9 7 8 10 8 5 7 10 10 9 6 6 12 20 26 26 21 17 15 17 19 18 14 11 14 14 3 5 4 7 8 11 11 10 11 11 11 11 11 12 10 8
Wind_Direction
234 235 235 235 235 235 235 234 235 236 235 236 234 235 234 227 225 223 222 225 225 221 215 214 216 214 217 217 209 206 199 196 194 196 208 209 205 216 214 206 197 183 175 177 180 167 172 184 151 139 133 107 40 36 336 308 270 227 217 224 239 234 220 60 51 29 347 23 33 43 31 275 231 139 165 183 234 225 187 198 183 171 197 112 95 132 141 148
233 233 233 234 233 233 234 233 233 235 234 233 231 232 233 229 226 222 221 224 225 223 214 213 216 213 215 215 207 204 200 199 201 205 211 205 206 215 207 199 191 178 173 177 187 183 179 186 166 148 133 119 270 73 346 303 266 235 218 220 235 220 79 56 53 39 16 8 357 22 44 297 307 21 141 227 235 202 217 212 196 205 196 162 138 157 149 154
231 231 230 232 232 230 231 232 231 233 232 230 229 229 230 230 227 222 219 222 223 223 216 214 215 211 213 212 205 202 200 206 215 217 211 206 210 214 204 194 188 177 175 182 187 188 183 177 175 170 149 143 138 92 224 298 284 252 244 231 201 107 96 67 52 48 28 359 340 6 29 305 285 322 168 248 263 220 231 226 202 213 200 180 164 164 158 162
230 230 229 229 231 228 228 230 228 230 231 228 226 226 228 229 228 223 218 219 221 220 213 211 212 209 210 206 201 195 193 220 231 218 209 205 208 212 208 196 191 188 185 192 193 187 176 171 183 183 167 157 126 101 198 224 299 199 233 238 129 128 117 75 55 44 24 2 340 339 328 300 14 270 241 249 264 241 241 239 214 222 200 175 166 169 165 168
229 229 228 228 228 227 226 227 226 227 228 225 223 224 226 227 230 225 218 217 221 220 212 208 208 207 206 199 193 183 181 226 218 204 205 204 206 211 210 198 195 199 195 196 191 184 178 172 183 185 178 178 140 163 198 160 330 220 208 99 102 145 121 93 74 48 8 357 333 325 330 332 344 258 243 240 253 256 342 348 314 276 198 168 166 171 168 174
229 228 228 227 226 225 224 224 224 224 224 223 222 221 222 224 227 227 220 216 219 221 215 207 202 204 203 191 187 184 188 212 157 192 201 199 204 207 206 200 196 197 194 196 189 182 178 167 179 188 187 192 183 188 169 74 346 259 196 123 112 92 99 101 68 62 349 350 355 342 340 319 297 269 251 236 248 267 51 43 15 343 185 163 165 170 172 181
229 227 226 227 225 223 221 221 222 222 223 222 219 217 217 220 223 225 220 215 216 216 213 206 197 198 196 184 186 195 206 216 97 185 194 192 201 204 201 199 194 193 193 196 192 189 181 173 184 193 197 197 193 196 152 78 309 274 201 159 144 85 93 101 48 37 317 333 348 336 313 294 281 285 298 245 252 264 203 97 75 357 157 161 167 173 178 185
228 226 224 225 223 222 220 219 221 221 221 220 218 215 213 214 217 221 219 215 213 212 211 203 198 194 185 180 186 201 216 210 129 172 185 187 194 197 195 192 189 189 195 198 194 194 189 185 186 182 203 205 189 189 147 100 280 270 210 164 165 161 216 316 313 291 298 302 327 312 295 291 282 305 303 261 257 258 213 129 125 149 161 170 179 180 183 187
226 223 222 223 223 223 221 220 220 220 218 217 217 213 211 210 209 215 218 216 211 211 209 197 197 191 178 182 195 207 214 201 151 170 181 183 186 191 190 185 185 189 196 199 198 198 195 194 191 182 197 199 181 178 150 160 226 254 210 161 180 211 249 289 288 283 295 288 295 297 296 298 310 340 283 254 253 244 180 164 172 169 174 184 189 187 188 189
224 222 223 223 223 223 222 221 220 219 218 217 216 213 213 209 206 209 213 217 212 211 209 195 192 186 176 181 207 217 202 183 162 172 177 179 180 185 187 185 188 192 196 197 197 198 199 195 186 193 205 180 175 164 152 183 188 115 139 162 228 268 275 272 277 278 286 281 276 282 294 297 177 243 262 230 130 171 176 198 192 183 189 189 191 190 193 195
220 221 221 220 219 221 220 220 219 217 217 216 214 214 213 210 207 207 207 214 211 210 211 197 186 180 175 179 207 216 177 168 164 167 173 176 177 179 184 187 188 193 196 196 197 196 201 185 134 60 295 156 167 165 155 174 124 112 147 247 246 266 267 258 267 273 275 266 267 288 293 286 246 215 247 219 129 171 197 204 191 194 199 189 191 189 194 201
218 219 219 217 217 219 219 220 218 215 215 214 213 213 213 212 208 205 204 211 213 213 211 197 186 178 173 183 213 200 156 164 160 161 171 173 174 177 182 187 189 195 198 195 197 193 192 163 139 162 181 144 166 160 157 155 133 145 191 253 252 270 265 257 262 267 271 259 232 318 294 274 239 226 239 214 156 176 203 204 194 200 205 194 192 188 193 201
216 217 217 215 214 216 218 218 216 214 213 212 212 212 214 213 210 207 205 210 219 219 214 202 190 179 171 193 212 195 166 167 163 161 171 170 170 176 183 191 193 197 200 198 193 178 166 147 154 178 176 189 185 124 130 141 160 167 156 256 251 267 262 254 253 232 258 260 166 230 279 266 247 232 217 178 154 177 198 204 200 198 201 198 192 191 195 197
213 212 211 212 212 213 217 217 213 211 211 211 210 209 212 210 210 210 207 211 218 221 219 204 190 179 177 193 195 202 193 171 172 168 170 172 168 169 175 186 194 199 202 196 173 152 150 143 142 137 10 276 163 127 133 134 180 178 138 247 237 251 248 221 202 191 233 236 160 212 252 262 271 244 164 147 172 188 207 208 199 195 196 197 194 195 199 198
211 206 205 208 209 209 211 212 209 208 209 208 206 205 208 207 206 208 206 206 210 217 218 202 188 174 181 214 172 193 192 178 185 177 171 173 166 162 166 171 181 189 187 172 153 152 151 144 136 121 34 341 144 153 166 156 192 188 183 217 215 235 234 176 161 205 230 201 172 214 248 260 263 264 103 113 212 209 230 222 200 197 195 195 197 199 202 201
203 198 198 203 206 205 204 204 204 205 204 201 201 201 204 205 202 201 198 195 198 205 206 196 183 170 183 196 155 174 183 187 188 177 176 178 169 164 161 156 153 148 142 132 141 146 143 142 131 103 111 164 164 168 187 198 204 197 212 222 201 209 223 208 174 197 231 226 200 216 251 269 247 233 101 126 220 231 246 243 218 203 198 199 198 200 204 200
196 193 194 197 202 203 199 199 199 199 198 195 195 196 201 203 196 189 187 190 190 192 204 197 177 176 185 147 149 163 176 185 181 173 178 181 173 164 156 150 145 133 121 123 137 139 141 146 125 120 153 186 178 181 198 210 210 200 212 225 211 207 218 216 162 134 221 237 227 222 240 256 259 276 271 183 183 224 250 255 243 214 203 205 200 203 205 202
190 187 188 189 195 196 193 193 193 192 192 190 190 192 194 194 183 174 170 179 180 183 223 222 177 179 207 162 160 166 173 176 173 170 176 181 176 166 157 150 143 136 125 131 150 152 158 164 161 172 183 187 182 190 205 211 204 194 200 213 215 209 216 222 180 131 189 231 245 238 241 249 252 263 271 256 202 218 250 255 254 237 216 207 202 209 208 207
181 179 178 180 187 189 187 187 187 187 185 183 185 184 184 179 169 169 163 163 171 188 230 228 185 186 335 180 169 158 166 167 163 168 174 178 176 169 163 153 146 149 147 153 172 172 164 161 180 190 188 190 189 195 208 220 212 199 203 214 214 208 216 226 207 148 170 243 254 251 256 259 255 248 256 257 222 219 249 251 252 248 230 215 207 211 212 214
172 170 171 174 180 182 184 184 183 182 180 176 171 167 172 169 160 183 177 169 188 207 229 65 193 290 13 195 164 145 152 157 157 169 174 175 171 166 165 157 155 165 167 168 172 175 175 176 192 198 189 185 187 197 210 225 222 205 212 223 224 228 226 210 195 155 142 250 255 254 259 262 264 259 252 251 229 215 239 245 244 245 236 224 214 213 213 215
168 165 168 171 173 175 178 182 182 179 177 170 162 159 174 169 166 165 156 183 205 208 249 313 321 316 343 295 172 146 143 154 158 169 171 172 165 157 159 163 164 180 182 171 158 156 188 196 202 199 190 184 188 199 210 218 217 211 220 225 227 237 239 220 178 152 151 226 256 256 261 260 260 261 257 253 239 227 234 241 243 243 239 229 220 217 214 211
164 162 164 166 169 170 169 173 177 176 172 165 161 168 186 175 182 156 151 182 199 194 234 262 300 303 302 295 224 159 141 150 160 170 170 170 166 161 164 172 172 177 180 170 149 157 198 212 203 194 192 190 191 199 206 212 212 216 224 224 229 235 241 242 180 158 164 210 259 261 262 263 260 257 254 250 247 242 236 237 242 243 242 236 226 220 211 203
154 152 154 160 163 165 164 164 166 169 169 168 170 166 144 175 177 150 154 170 167 178 221 226 253 272 278 291 245 170 155 158 163 176 176 171 171 170 168 175 179 175 174 172 165 171 195 209 194 188 193 194 196 200 202 208 212 218 222 219 231 231 235 246 184 169 184 209 262 279 274 269 265 260 252 243 244 249 242 235 237 237 239 240 234 227 213 203
147 145 148 152 153 157 159 158 159 164 170 174 177 163 132 157 160 147 141 81 126 149 219 211 218 236 239 262 244 185 173 167 164 172 177 174 170 171 173 176 178 177 177 177 177 181 186 173 177 183 189 193 198 198 198 205 210 215 222 221 230 231 234 250 180 168 208 225 240 265 280 270 254 248 245 235 229 238 243 237 232 228 228 235 236 231 222 213
144 144 145 145 148 151 150 151 158 163 168 173 174 156 139 142 148 147 129 53 226 163 171 174 161 231 232 244 253 209 170 173 174 167 173 178 172 169 178 180 178 179 180 180 181 192 188 159 171 181 181 190 198 197 198 203 210 215 219 223 236 244 239 238 231 216 263 255 212 218 268 275 240 239 242 235 220 226 234 232 227 223 218 220 225 225 222 222
144 144 144 144 147 148 145 147 158 158 162 170 163 150 146 142 144 146 124 16 233 181 165 157 142 213 217 228 237 191 172 185 170 158 166 179 179 174 177 178 184 185 179 179 185 198 183 169 174 176 175 189 197 198 197 195 213 226 200 203 226 243 243 232 237 232 265 291 148 185 254 282 285 267 255 248 235 227 227 224 219 218 216 212 214 217 216 220
144 144 144 144 146 146 146 147 154 158 163 162 155 150 150 149 147 146 135 258 224 145 148 155 145 183 192 199 189 176 168 148 140 163 172 176 181 186 183 173 178 187 173 171 195 182 162 172 175 173 177 188 194 202 196 190 216 225 157 182 213 226 233 230 238 240 262 311 300 217 237 273 283 275 247 239 244 239 230 223 214 213 217 213 210 210 210 214
143 144 144 142 146 147 138 139 149 165 167 151 148 149 154 157 148 147 166 234 196 112 141 159 160 169 177 188 185 189 143 140 149 178 176 176 179 183 192 180 177 181 169 170 192 157 159 174 174 173 180 190 198 205 185 184 214 200 135 188 209 213 231 238 241 249 296 327 274 234 219 253 267 261 217 219 233 241 236 231 226 220 218 215 212 209 205 209
138 142 142 138 140 133 118 135 148 154 144 144 145 146 152 159 140 139 195 228 153 97 143 157 171 174 165 179 187 208 173 156 164 166 168 182 194 179 193 186 180 172 170 180 182 146 164 177 174 176 186 192 197 198 177 188 209 151 137 179 190 206 230 248 239 245 342 275 257 238 215 248 274 259 227 220 228 236 235 235 234 229 223 215 209 209 206 206
138 140 140 137 130 120 123 129 133 136 139 146 147 138 132 137 149 162 192 204 118 115 153 158 174 169 167 187 192 191 193 179 142 143 161 175 165 9 153 170 178 161 158 171 148 124 130 160 175 182 192 191 192 188 180 193 181 129 137 147 127 168 172 208 232 179 255 253 245 225 219 242 281 256 218 227 228 224 227 231 233 232 228 216 205 205 206 204
140 141 140 137 130 131 136 128 127 139 143 144 141 132 121 128 221 188 187 235 84 143 163 159 166 165 174 193 193 173 185 181 141 148 156 153 153 190 154 161 178 150 141 132 106 118 122 147 170 165 193 186 175 165 141 157 149 131 144 145 122 124 123 162 198 174 233 246 239 210 209 222 246 239 197 242 238 227 232 234 236 237 235 225 204 198 204 203
139 141 138 138 143 143 141 137 140 144 144 143 139 133 138 183 233 211 186 356 90 165 174 159 164 165 176 194 197 171 173 176 162 160 160 164 169 181 175 171 163 146 152 153 143 141 144 161 152 120 208 183 154 132 92 124 153 151 161 159 152 154 158 197 192 196 234 224 107 160 191 223 245 249 250 253 251 247 241 237 243 246 246 242 216 201 207 202
137 137 131 138 148 142 131 136 143 149 148 147 147 146 173 208 222 193 161 22 71 146 164 159 164 166 174 189 199 177 169 173 175 167 164 170 173 183 187 180 169 165 162 159 157 151 148 170 157 147 190 181 162 158 163 172 179 175 169 171 177 166 177 207 194 215 248 208 163 158 170 252 264 263 248 249 253 253 245 240 250 253 253 261 248 215 224 211
135 136 130 133 140 135 139 142 146 151 148 145 148 157 184 217 205 134 153 189 35 112 154 164 165 167 179 188 187 179 174 178 178 170 168 171 175 185 187 184 183 173 139 151 159 158 159 178 180 172 173 181 185 187 170 150 158 178 178 184 194 179 188 209 196 215 233 190 164 161 168 248 262 22 293 259 262 260 259 253 257 260 254 265 279 258 253 251
126 132 132 133 139 136 142 151 153 149 145 133 140 164 193 208 189 148 162 145 133 155 154 174 169 164 184 193 183 188 188 179 182 176 173 175 177 181 175 180 191 178 142 154 158 163 174 170 169 175 191 185 189 184 137 128 136 186 193 196 212 213 210 221 242 217 211 185 182 184 227 261 277 318 291 267 247 220 232 249 251 255 249 245 253 248 235 226
113 123 133 139 153 149 141 152 155 151 149 140 151 183 206 197 116 184 157 128 152 175 155 171 176 160 176 183 186 199 201 149 181 182 180 181 179 177 172 173 185 183 167 158 148 168 182 160 153 171 195 187 184 160 145 146 149 168 204 204 197 339 244 222 194 81 52 271 232 191 237 265 279 282 258 244 248 226 206 223 237 245 245 244 249 248 238 219
109 119 134 146 164 163 151 152 156 157 158 148 169 192 203 221 70 93 107 138 165 175 160 168 183 170 172 170 184 198 189 162 183 185 178 183 183 173 169 169 182 185 174 157 146 170 160 116 96 178 176 181 187 155 160 163 144 156 195 190 128 40 302 240 222 190 201 253 244 200 231 251 253 268 222 214 245 243 214 211 225 241 243 244 250 253 255 236
115 117 127 156 173 167 159 157 160 163 162 169 200 205 182 190 155 120 15 192 171 174 176 172 188 198 176 172 179 182 180 182 183 183 177 182 187 172 169 171 182 187 177 157 146 143 131 100 19 290 162 152 6 162 168 173 49 162 187 172 162 210 220 201 220 227 213 235 257 226 237 249 229 233 234 214 234 253 237 214 212 231 235 235 244 250 260 253
130 130 118 162 177 169 164 162 161 167 174 183 205 212 177 155 164 156 148 260 180 188 197 179 121 208 193 170 154 163 184 197 181 176 184 183 181 177 178 175 177 185 179 164 153 148 135 120 140 295 356 147 156 177 178 172 116 278 181 176 197 234 219 204 208 228 226 233 267 258 244 248 227 220 229 231 229 241 252 233 213 228 233 229 242 253 264 275
142 145 103 162 178 170 167 165 162 170 182 194 207 197 162 155 168 182 180 173 312 238 216 195 131 157 178 156 139 166 192 206 187 179 190 187 174 176 185 183 172 179 181 174 161 151 149 131 135 137 304 175 175 197 190 179 170 179 183 186 195 199 216 231 214 219 242 238 259 271 259 255 221 195 211 222 227 233 246 255 239 230 229 191 270 291 303 306
145 130 110 166 175 166 163 167 172 179 186 204 208 179 148 152 154 175 185 185 203 22 24 332 173 166 164 157 170 188 189 206 195 188 191 189 184 179 188 187 171 169 177 179 171 159 157 137 131 145 186 185 176 186 186 184 182 184 190 188 185 180 174 196 212 208 214 235 243 262 270 263 162 153 186 194 216 231 241 261 261 246 265 9 53 94 238 279
134 118 118 164 170 164 163 168 174 187 200 205 202 161 148 162 156 168 178 183 199 59 32 344 221 177 178 175 168 164 171 208 201 195 196 192 196 197 185 182 173 167 168 164 152 129 103 113 130 146 162 150 93 56 48 49 194 196 208 204 191 189 193 201 214 197 190 226 247 283 283 272 134 148 171 162 189 228 255 274 269 261 262 295 354 19 272 268
106 104 106 160 171 169 167 169 175 197 211 202 195 132 138 149 159 166 173 181 184 143 87 311 245 208 209 192 157 160 169 207 215 205 204 189 196 216 180 179 177 172 169 143 120 114 94 109 126 125 107 51 50 64 46 22 281 202 210 213 201 200 205 208 229 199 193 215 215 234 261 252 134 146 159 125 116 70 274 247 252 262 280 315 299 301 285 274
110 108 98 164 179 184 183 174 179 199 207 193 194 181 159 157 175 174 173 181 179 157 170 219 227 230 229 195 193 185 176 195 226 218 225 190 195 261 181 180 178 174 176 158 153 162 147 140 137 128 136 138 114 153 185 209 227 211 204 207 204 205 205 196 19 263 222 219 205 214 249 249 139 125 130 107 127 214 238 235 232 252 272 284 264 264 265 266
122 116 103 161 185 200 215 211 195 202 204 193 198 197 186 187 190 186 182 180 180 172 171 195 208 221 266 215 214 206 190 189 208 216 253 196 230 313 183 181 179 176 171 151 158 163 146 156 152 144 161 175 180 190 188 185 200 201 199 203 204 207 206 195 196 225 224 221 206 216 253 256 144 132 180 167 181 219 227 214 213 240 247 251 244 242 244 256
142 133 137 159 191 223 246 260 241 223 207 198 204 201 200 213 205 193 196 189 180 177 174 173 173 181 265 238 221 213 203 204 224 223 226 183 198 313 188 180 178 173 141 133 152 148 124 167 173 168 176 178 155 143 123 119 137 170 192 198 194 201 210 206 208 223 225 227 223 230 245 252 231 183 184 183 198 215 210 182 197 215 219 229 235 242 243 237
170 156 158 163 173 221 238 249 240 231 215 199 194 181 194 207 200 185 204 206 178 171 182 180 161 168 208 217 224 219 198 195 208 210 218 200 134 352 190 180 175 163 129 136 160 154 132 180 183 179 184 178 146 142 139 139 155 175 183 186 182 183 197 204 209 222 222 220 236 233 233 247 251 226 196 194 200 207 207 195 197 195 193 211 231 253 262 243
183 170 169 176 181 196 209 222 224 224 219 209 202 190 194 201 197 184 197 205 189 176 179 201 197 195 189 185 215 221 184 176 193 186 193 198 154 128 170 177 178 158 135 149 180 154 147 190 187 178 174 164 162 163 158 159 170 179 181 185 186 185 193 202 213 223 217 209 233 235 226 240 249 237 219 219 211 209 208 195 174 136 158 225 273 285 289 284
208 257 174 192 209 197 199 209 213 217 220 215 215 220 210 203 203 200 187 183 193 190 188 205 207 201 200 197 210 223 192 181 187 183 180 178 168 160 159 168 200 172 145 162 202 162 168 187 176 171 158 149 167 165 163 171 175 179 187 190 188 189 196 204 216 224 220 219 237 240 234 245 251 244 234 234 224 217 188 134 138 188 231 254 265 265 261 258
189 195 175 216 235 230 222 217 207 214 220 215 219 229 226 215 211 209 191 181 189 187 191 210 211 195 194 197 203 223 220 210 211 191 174 170 171 176 174 171 185 176 162 172 185 179 191 177 159 164 157 143 178 166 167 177 178 180 191 192 190 193 200 209 219 224 218 226 239 242 249 260 262 243 240 243 229 218 178 143 214 229 240 250 254 259 260 254
209 337 11 255 230 233 244 234 215 218 218 211 219 224 224 225 218 210 201 195 195 184 185 206 213 193 180 193 208 222 222 222 247 216 177 177 180 180 185 174 165 165 170 180 180 178 190 172 156 166 175 183 183 171 170 173 171 179 191 193 194 198 204 210 217 215 206 219 234 238 244 257 256 175 228 243 225 219 219 225 243 247 241 241 242 247 255 257
215 283 348 320 251 240 246 240 225 227 223 214 221 221 221 229 222 209 209 209 207 200 192 201 206 186 176 202 216 223 216 218 253 235 185 193 202 164 283 181 170 170 174 178 178 178 184 175 160 172 183 175 164 166 160 142 142 199 204 197 198 202 206 211 215 215 213 217 226 225 230 241 224 116 213 231 203 211 227 236 246 252 251 253 254 251 248 246